Location: Ecklingerode
(51.5036°N, 10.3122°E)
Time: 14:26:05
(UTC+00:00)

Cosmos 220 Rocket - Pass Details

Date: 29 October 2020
Orbit: 574 x 617 km, 74.0° (Epoch: 29 November)

Event Time Altitude Azimuth Distance (km) Brightness Sun altitude
Rises 17:46:26 0° 196° (SSW) 2,839 7.7 -17.6°
Reaches altitude 10° 17:48:38 10° 194° (SSW) 1,947 6.8 -17.9°
Maximum altitude 17:52:58 70° 111° (ESE) 653 3.9 -18.6°
Enters shadow 17:55:48 22° 32° (NNE) 1,370 5.5 -19.0°
